Location: Atlanta
(33.7490°N, 84.3880°W)
Time: 13:14:47
(UTC-04:00)

Daily predictions for brighter satellites

Satellite Brightness Start Highest point End
(mag) Time Altitude Azimuth Time Altitude Azimuth Time Altitude Azimuth
Aureole 2 Rocket 3.1 19:53:08 10° SSW 19:57:30 82° WNW 20:01:52 10° NNE
OAO 3 Rocket 3.2 19:53:11 10° W 19:57:56 81° N 20:02:46 10° E
ISS -1.7 19:56:05 10° S 19:58:21 18° SE 20:00:33 10° E
USA 215 3.3 19:52:25 10° NE 19:58:57 70° SE 20:05:26 10° SW
Cosmos 1624 Rocket 4.0 19:53:48 10° NNW 19:59:00 70° ENE 20:04:09 10° SSE
Cosmos 1484 Rocket 2.8 19:55:35 10° S 19:59:22 87° WSW 20:03:16 10° NNW
SAR-Lupe-1 4.3 19:56:56 10° SSE 20:00:21 47° ENE 20:03:47 10° N
SL-19 R/B 4.3 19:55:15 10° SSE 20:00:47 71° ENE 20:06:36 10° N
ASTRO E2 2.9 20:00:36 10° W 20:04:36 63° S 20:08:09 13° E
CZ-4C R/B 4.4 20:01:41 10° WSW 20:06:02 25° NW 20:10:47 10° N
Cosmos 1766 Rocket 4.3 20:02:14 10° NNE 20:06:06 30° ENE 20:09:54 10° SE
ALOS 3.7 20:04:12 10° ESE 20:07:15 18° ENE 20:10:19 10° NNE
Cosmos 2237 Rocket 4.4 20:03:34 10° WSW 20:08:25 28° WNW 20:13:16 10° N
Cosmos 2034 Rocket 4.2 20:02:43 10° SSE 20:08:37 46° E 20:14:36 10° NNE
Cosmos 1464 Rocket 4.0 20:04:14 10° S 20:10:25 68° E 20:16:34 10° NNE
TIMED 4.5 20:06:54 10° NNW 20:11:17 88° ENE 20:15:38 10° SSE
OAO 1 Rocket 4.5 20:06:45 10° W 20:12:09 88° N 20:16:48 14° E
ATLAS 5 CENTAUR R/B 1.8 20:07:30 10° SSW 20:12:11 88° ESE 20:17:14 10° NNE
BREEZE-M TANK 3.1 20:02:05 10° WNW 20:12:16 84° NE 20:15:15 13° ESE
Helios 1B rocket 2.7 20:10:17 10° NNE 20:14:13 44° E 20:18:09 10° S
Meteor 1-29 3.7 20:11:32 10° NNE 20:14:43 32° E 20:17:52 10° SSE
Atlas Centaur 2 3.6 20:07:44 10° W 20:16:04 55° SSW 20:23:25 12° ESE
Cosmos 1076 Rocket 3.7 20:13:13 10° N 20:17:26 51° E 20:21:40 10° SSE
Cosmos 1766 3.8 20:15:36 10° SSW 20:19:29 64° W 20:23:27 10° N
Cosmos-2242 3.3 20:15:25 10° SSE 20:19:31 43° E 20:23:41 10° NNE
SeaSat 1 3.7 20:16:04 10° ENE 20:19:35 19° ESE 20:23:05 10° SSE
BREEZE-M DEB (TANK) 4.4 20:21:29 10° NW 20:25:28 76° SW 20:40:05 10° SE
SL-16 R/B 3.4 20:22:57 10° SW 20:28:22 45° WNW 20:33:50 10° N
Cosmos 1452 Rocket 3.7 20:23:22 10° N 20:28:26 47° ENE 20:33:23 10° SE
NOSS 3-2 (A) 4.4 20:23:03 10° SW 20:28:50 49° NW 20:35:08 10° NNE
FREGAT/IRIS 2.6 20:26:08 10° S 20:29:13 86° WSW 20:32:19 10° NNW
SEDSat Delta rocket 4.1 20:22:36 10° W 20:29:16 74° S 20:34:02 21° E
Cosmos 1842 Rocket 4.3 20:31:04 10° SSE 20:34:46 29° E 20:38:31 10° NNE
ATLAS CENTAUR R/B 2.9 20:31:22 10° NW 20:35:04 35° WSW 20:38:30 10° S
SL-8 R/B 3.6 20:33:41 10° SW 20:38:28 89° SE 20:42:04 18° NE
Cosmos 1408 Rocket 3.4 20:35:34 10° N 20:39:56 85° E 20:44:13 10° S
Cosmos 1544 3.1 20:36:19 10° S 20:39:58 57° E 20:43:40 10° NNE
METEOR-M 4.1 20:34:50 10° SSE 20:40:10 86° ENE 20:45:33 10° NNW
Cosmos 468 4.4 20:36:00 10° SSW 20:41:15 81° ESE 20:46:30 10° NNE
Gbstr 26 Del rocket 3.4 20:39:48 10° SSW 20:43:52 45° SE 20:45:51 29° ENE
Cosmos 1953 2.5 20:41:06 10° S 20:45:03 74° W 20:49:03 10° N
H-2A R/B 3.6 20:50:09 33° ENE 20:50:09 33° ENE 20:53:12 10° N
Cosmos 1805 3.7 20:45:58 10° SSW 20:49:50 63° W 20:53:45 10° N
Cosmos 1420 Rocket 4.4 20:45:32 10° N 20:50:32 41° ENE 20:52:00 34° ESE
FENGYUN 3A 3.7 20:47:47 19° SE 20:51:29 52° ENE 20:56:41 10° N
Resurs 1-3 3.5 20:48:45 10° SSE 20:53:08 81° ENE 20:57:31 10° N
Resurs 01 Rocket 1.8 20:49:33 10° S 20:53:59 74° WSW 20:58:27 10° NNW
Abrixas 3.5 20:56:45 10° WSW 20:59:37 41° NW 21:00:02 38° N
ASTEX 1 3.3 20:55:28 10° NNE 21:00:20 65° E 21:05:11 10° S
Spot 2 Rocket 3.9 20:57:39 10° S 21:02:38 62° WSW 21:07:37 10° NNW
CENTAUR R/B 2.4 20:57:14 10° SSW 21:02:59 59° ESE 21:09:24 10° NE
Cosmos 1269 Rocket 4.0 20:58:25 10° SSW 21:03:42 81° WNW 21:09:00 10° NNE
Helios 1A 3.5 21:00:46 10° S 21:04:53 59° WSW 21:09:02 10° NNW
Cosmos 1048 Rocket 3.9 21:00:16 10° SSW 21:05:35 88° ESE 21:10:53 10° NNE
Cosmos 1743 Rocket 3.4 21:03:53 10° N 21:08:20 81° E 21:09:33 47° SSE
Cosmos 1943 3.1 21:05:59 10° S 21:11:32 61° ESE 21:17:04 10° NNE
Cosmos 1470 3.8 21:13:51 35° N 21:13:51 35° N 21:16:12 10° N
Cosmos 2369 Rocket 3.1 21:10:09 10° N 21:14:18 30° NE 21:14:18 30° NE
Cosmos 1943 Rocket 4.3 21:15:41 10° NNE 21:16:39 12° NNE 21:16:39 12° NNE
Cosmos 1174 4.2 21:15:28 10° SSW 21:20:08 67° S 21:20:08 67° S
GPS 2-04 Rocket1 3.4 21:17:09 10° WSW 21:19:40 45° WSW 21:19:40 45° WSW
Nadezhda 4 Rocket 4.1 21:16:54 10° N 21:23:10 76° W 21:29:20 10° S
Cosmos 1092 Rocket 3.8 21:23:59 10° N 21:30:12 88° E 21:32:27 42° S
Cosmos 2142 Rocket 4.4 21:24:42 10° S 21:31:02 79° E 21:37:26 10° N
ISS -0.8 21:31:42 10° WSW 21:33:16 22° W 21:33:16 22° W
Cosmos 1674 4.4 21:34:28 10° NNW 21:36:37 30° NNW 21:36:37 30° NNW
Cosmos 1634 Rocket 4.0 21:34:22 10° S 21:40:39 81° W 21:46:54 10° N
OAO 3 Rocket 3.7 21:36:48 10° W 21:40:37 57° WNW 21:40:37 57° WNW
ALOS 3.5 21:42:33 27° SW 21:44:21 38° W 21:48:42 10° NNW
Cosmos 2026 Rocket 4.5 21:38:37 10° N 21:42:57 45° NNE 21:42:57 45° NNE
BREEZE-M DEB (TANK) 4.4 21:37:04 10° NW 21:50:41 42° WSW 21:52:19 35° SSW
SeaSat 1 3.5 21:52:32 10° N 21:57:12 44° WNW 22:01:52 10° SW
Atlas Centaur 2 4.2 21:58:32 10° W 22:05:13 27° SSW 22:06:05 26° SSW
